Chicago O'Hare International, IL

7:44 PM CST on February 19, 2017 (GMT -0600)
Chicago-O'Hare International

Weather History for KORD - January, 2014

Change the Weather History Date:

Saturday, January 18, 2014

  Actual Average Record
Temperature  
Mean Temperature 14 °F 23 °F  
Max Temperature 21 °F 31 °F 61 °F (1996)
Min Temperature 7 °F 16 °F -21 °F (1994)
Degree Days  
Heating Degree Days 51 42  
Month to date heating degree days 850 742  
Since 1 July heating degree days 3416 3153  
Cooling Degree Days 0 0  
Month to date cooling degree days 0 0  
Year to date cooling degree days 0 0  
Moisture  
Dew Point 9 °F    
Average Humidity 73    
Maximum Humidity 80    
Minimum Humidity 66    
Precipitation  
Precipitation 0.12 in 0.05 in 1.51 in (1876)
Month to date precipitation 2.37 1.07  
Year to date precipitation 2.37 1.07  
Snow  
Snow 2.40 in 0.40 in 5.30 in (1943)
Month to date snowfall 23.8 6.1  
Since 1 July snowfall 38.9 15.7  
Snow Depth 1.00 in    
Sea Level Pressure  
Sea Level Pressure 29.84 in    
Wind  
Wind Speed 7 mph (SSE)    
Max Wind Speed 16 mph    
Max Gust Speed 19 mph    
Visibility 6 miles    
Events Fog , Snow    
T = Trace of Precipitation, MM = Missing Value Source: NWS Daily Summary

Daily Weather History Graph

Daily Weather History Graph

Search for Another Location

Airport or City:

Trip Planner

Search our weather history database for the weather conditions in past years. The results will help you decide how hot, cold, wet, or windy it might be!

Date:

Astronomy

Jan. 18, 2014 Rise Set
Actual Time 7:15 AM CST 4:48 PM CST
Civil Twilight 6:44 AM CST 5:19 PM CST
Nautical Twilight 6:10 AM CST 5:53 PM CST
Astronomical Twilight 5:37 AM CST 6:27 PM CST
Moon 7:34 PM CST (1/18) 8:12 AM CST (1/18)
Length of Visible Light 10h 34m
Length of Day
9h 33m
Waning Gibbous, 94% of the Moon is Illuminated
Jan 18
Waning Gibbous
Jan 23
Last Quarter
Jan 30
New
Feb 6
First Quarter
Feb 14
Full

Hourly Weather History & Observations

Time (CST) Temp. Windchill Dew Point Humidity Pressure Visibility Wind Dir Wind Speed Gust Speed Precip Events Conditions
12:23 AM 14.0 °F 2.9 °F 6.1 °F 71% 29.91 in 10.0 mi West 8.1 mph - 0.00 in   Overcast
12:51 AM 12.9 °F 2.6 °F 5.0 °F 71% 29.94 in 10.0 mi WSW 6.9 mph - 0.00 in Snow Light Snow
1:51 AM 10.4 °F 0.8 °F 1.4 °F 67% 29.90 in 10.0 mi SW 5.8 mph - N/A   Clear
2:51 AM 10.9 °F 1.4 °F 3.0 °F 70% 29.95 in 10.0 mi WSW 5.8 mph - 0.00 in   Overcast
3:51 AM 10.9 °F -0.8 °F 3.9 °F 73% 29.94 in 10.0 mi WSW 8.1 mph - N/A   Overcast
4:51 AM 10.9 °F -2.6 °F 3.9 °F 73% 29.93 in 10.0 mi SW 10.4 mph - N/A   Overcast
5:51 AM 10.0 °F -0.9 °F 3.0 °F 73% 29.91 in 10.0 mi South 6.9 mph - N/A   Overcast
6:51 AM 10.9 °F 0.2 °F 3.9 °F 73% 29.89 in 10.0 mi South 6.9 mph - N/A   Overcast
7:51 AM 12.0 °F 0.5 °F 5.0 °F 73% 29.87 in 10.0 mi South 8.1 mph - N/A   Overcast
8:51 AM 12.9 °F 1.6 °F 6.1 °F 74% 29.86 in 10.0 mi South 8.1 mph - N/A   Overcast
9:51 AM 15.1 °F 4.2 °F 7.0 °F 70% 29.86 in 10.0 mi South 8.1 mph - N/A   Overcast
10:51 AM 17.1 °F 5.0 °F 8.1 °F 68% 29.83 in 10.0 mi SSE 10.4 mph - N/A   Overcast
11:21 AM 18.0 °F 6.1 °F 9.0 °F 68% 29.78 in 4.0 mi SSE 10.4 mph - 0.00 in Snow Light Snow
11:27 AM 18.0 °F 6.9 °F 9.0 °F 68% 29.77 in 2.5 mi SSE 9.2 mph - 0.00 in Snow Light Snow
11:42 AM 18.0 °F 7.7 °F 10.0 °F 71% 29.77 in 0.8 mi SSE 8.1 mph - 0.00 in Snow Light Snow
11:51 AM 18.0 °F 5.4 °F 10.9 °F 74% 29.80 in 0.8 mi SSE 11.5 mph - 0.00 in Snow Light Snow
12:12 PM 18.0 °F 6.9 °F 12.0 °F 78% 29.76 in 1.0 mi SSE 9.2 mph - 0.01 in Snow Light Snow
12:22 PM 18.0 °F 6.9 °F 12.0 °F 78% 29.75 in 0.8 mi SSE 9.2 mph - 0.02 in Snow Light Snow
12:51 PM 19.0 °F 8.2 °F 12.9 °F 77% 29.78 in 0.8 mi SSE 9.2 mph - 0.04 in Snow Light Snow
1:51 PM 19.0 °F 6.1 °F 12.9 °F 77% 29.72 in 0.5 mi ESE 12.7 mph - 0.02 in Snow Snow
2:51 PM 19.9 °F 8.6 °F 14.0 °F 78% 29.77 in 0.5 mi ESE 10.4 mph - 0.03 in Snow Snow
3:24 PM 19.0 °F 6.8 °F 14.0 °F 81% 29.76 in 0.5 mi SE 11.5 mph - 0.02 in Snow Snow
3:34 PM 19.0 °F 7.5 °F 14.0 °F 81% 29.77 in 0.8 mi SE 10.4 mph - 0.02 in Snow Light Snow
3:46 PM 19.4 °F 9.5 °F 14.0 °F 80% 29.77 in 1.5 mi SE 8.1 mph - 0.03 in Snow Light Snow
3:51 PM 19.9 °F 11.1 °F 14.0 °F 78% 29.81 in 1.5 mi SE 6.9 mph - 0.03 in Snow Light Snow
4:25 PM 19.9 °F 10.1 °F 14.0 °F 78% 29.79 in 2.5 mi East 8.1 mph - 0.00 in Snow Light Snow
4:32 PM 19.9 °F 11.1 °F 14.0 °F 78% 29.78 in 3.0 mi East 6.9 mph - 0.00 in Snow Light Snow
4:51 PM 19.0 °F 10.0 °F 12.9 °F 77% 29.83 in 4.0 mi East 6.9 mph - 0.00 in Snow Light Snow
5:51 PM 21.0 °F 14.6 °F 14.0 °F 74% 29.86 in 4.0 mi ENE 4.6 mph - 0.00 in Snow Light Snow
6:09 PM 19.9 °F 14.9 °F 15.1 °F 81% 29.83 in 5.0 mi North 3.5 mph - 0.00 in Snow Light Snow
6:51 PM 19.9 °F 13.4 °F 14.0 °F 78% 29.85 in 7.0 mi East 4.6 mph - 0.00 in Snow Light Snow
7:51 PM 12.0 °F - 8.1 °F 84% 29.85 in 9.0 mi Calm Calm - 0.00 in   Partly Cloudy
8:51 PM 14.0 °F 8.2 °F 8.1 °F 77% 29.86 in 8.0 mi NNW 3.5 mph - N/A Fog Shallow Fog
9:11 PM 10.0 °F -1.9 °F 6.1 °F 84% 29.83 in 8.0 mi NW 8.1 mph - N/A Fog Shallow Fog
9:51 PM 12.0 °F 2.7 °F 7.0 °F 80% 29.88 in 7.0 mi NW 5.8 mph - N/A   Mostly Cloudy
10:04 PM 12.0 °F 2.7 °F 7.0 °F 80% 29.85 in 7.0 mi NW 5.8 mph - N/A   Scattered Clouds
10:51 PM 12.0 °F 2.7 °F 7.0 °F 80% 29.88 in 7.0 mi WNW 5.8 mph - N/A   Scattered Clouds
11:51 PM 9.0 °F -2.2 °F 3.9 °F 80% 29.86 in 6.0 mi West 6.9 mph - N/A   Scattered Clouds